Regional Weather Roundup
Issued by NWS

Home | Current Version | Previous Version | Text Only | Print | Product List | Glossary Off
Versions: 1 2 3 4 5 6 7 8 9 10 11 12 13 14 15 16 17 18 19 20 21 22 23 24 25 26 27 28 29 30 31 32 33 34 35 36 37 38 39 40 41 42 43 44 45 46 47 48 49 50

000
ASUS43 KMPX 230710
RWRMN
WEATHER ROUNDUP FOR MINNESOTA
NATIONAL WEATHER SERVICE TWIN CITIES/CHANHASSEN MN
200 AM CDT TUE AUG 23 2016


NOTE: "FAIR" INDICATES FEW OR NO CLOUDS BELOW 12,000 FEET WITH NO
SIGNIFICANT WEATHER AND/OR OBSTRUCTIONS TO VISIBILITY. N/A MEANS
CURRENT SKY AND/OR WEATHER CONDITIONS ARE NOT AVAILABLE.

MNZ060>063-068>070-230800-
   Twin Cities Metro

CITY           SKY/WX    TMP DP  RH WIND       PRES   REMARKS
TWIN CITIES    CLOUDY    73  59  61 S14       29.94S HAZE
ST PAUL        CLOUDY    69  60  73 S9        29.95F
CRYSTAL        CLOUDY    72  58  61 S12       29.92S
BLAINE         CLOUDY    73  61  64 S17G25    29.93S
LAKEVILLE      CLOUDY    66  61  82 S12G17    29.95F
EDEN PRAIRIE   CLOUDY    71  60  68 S14G23    29.93S
LAKEVILLE      CLOUDY    66  61  82 S12G17    29.95F
SOUTH ST PAUL  CLOUDY    70  59  69 S10G17    29.95F
LAKE ELMO      FAIR      68  61  77 S10       29.97S
$$
MNZ001>005-007-008-013>017-022>024-027-028-230800-
   Northwest Minnesota

CITY           SKY/WX    TMP DP  RH WIND       PRES   REMARKS
BEMIDJI        CLEAR     71  65  81 S7        29.79R
HALLOCK        CLOUDY    70  66  88 SE9       29.67S
ROSEAU         CLEAR     66  61  82 SE6       29.73S
WARROAD        CLEAR     64  61  88 SE5       29.74F
THIEF RVR FALL MOCLDY    69  66  90 SE9       29.72F
CROOKSTON      CLOUDY    73  68  83 S12       29.70R
FOSSTON        PTCLDY    70  64  83 S8        29.75F
DETROIT LAKES  CLEAR     72  63  73 S10       29.78S
MOORHEAD       CLEAR     72  64  78 SE17      29.70S
PARK RAPIDS    CLEAR     68  63  84 SE8       29.81S
MAHNOMEN       FAIR      71  65  80 S8        29.74S
$$
MNZ006-009>011-018-025>026-230800-
   North Central Minnesota

CITY           SKY/WX    TMP DP  RH WIND       PRES   REMARKS
BAUDETTE       CLEAR     65  63  93 SE6       29.76S
FLAG ISLAND    CLEAR     72  68  88 CALM      29.74S FOG
INTL FALLS     CLEAR     61  60  97 SE5       29.80S
WASKISH        CLEAR     70  66  88 S5        29.77R
BIG FORK       CLEAR     68  64  88 S6        29.82S
LONGVILLE      CLEAR     70  63  78 S8        29.83S
GRAND RAPIDS   CLEAR     68  62  81 S8        29.86F
CRANE LAKE     CLEAR     57  57 100 S2        29.85R
ORR            CLEAR     64  61  88 S5        29.82S
COOK           CLEAR     68  63  83 S7        29.85S
WALKER         FAIR      70  63  77 S9G17     29.80S
$$
MNZ012-019>021-037-230800-
   Northeast Minnesota

CITY           SKY/WX    TMP DP  RH WIND       PRES   REMARKS
DULUTH         CLEAR     68  60  75 SW15G22   29.90S
ELY            CLEAR     68  61  77 SW9G17    29.87S
HIBBING        CLEAR     65  60  84 S3        29.87R
EVELETH        CLEAR     66  59  80 S6        29.89S
DULUTH HARBOR  CLEAR     72  63  73 SW9       29.89R
TWO HARBORS    CLEAR     64  59  82 W3        29.89R
SILVER BAY     CLEAR     61  61 100 CALM      29.89R
GRAND MARAIS     N/A     65  63  93 CALM      29.88S
G MARAIS ARPRT PTCLDY    63  57  82 S6        29.94R
$$
MNZ029>031-032-039>041-046>048-054>057-064-230800-
   West Central Minnesota

CITY           SKY/WX    TMP DP  RH WIND       PRES   REMARKS
FERGUS FALLS     N/A     70  63  78 S16       29.77S
WHEATON        CLOUDY    72  64  78 SE10      29.76S
MORRIS         CLEAR     66  63  88 SE10      29.79S
ALEXANDRIA     CLEAR     70  61  73 S21G29    29.83S
ELBOW LAKE     FAIR      68  63  84 SE16G24   29.78F
GLENWOOD       CLEAR     68  63  83 S18G26    29.84S
APPLETON       CLOUDY    72  61  68 S9        29.80S
BENSON         CLEAR     68  61  77 S8        29.82F
ORTONVILLE     CLEAR     72  61  68 S10G17    29.78S
MADISON        PTCLDY    72  59  64 S16G23    29.80S
WILLMAR        FAIR      70  61  73 S8        29.87F
$$
MNZ033>034-036-042>043-049>051-058-059-230800-
   Central Minnesota

CITY           SKY/WX    TMP DP  RH WIND       PRES   REMARKS
ST CLOUD       CLEAR     69  61  75 S14       29.88F
SAUK CENTRE    FAIR      68  61  77 S17G24    29.85S
PAYNESVILLE    CLEAR     68  60  75 S10       29.88S
AITKIN         CLEAR     72  59  64 S12       29.86S
PINE RIVER     CLEAR     68  63  83 S6        29.87F
BRAINERD       CLEAR     68  61  78 S12       29.86S
STAPLES        CLEAR     68  61  77 S10       29.83F
LONG PRAIRIE   FAIR      68  61  77 SE13G20   29.85S
LITTLE FALLS   CLEAR     70  59  68 S9        29.87S
LITCHFIELD     CLEAR     70  63  78 S6        29.89F
BUFFALO        CLEAR     70  59  67 S9G20     29.92S
MAPLE LAKE     CLEAR     70  63  77 S9G16     29.91S
HUTCHINSON     CLOUDY    69  62  79 S13G18    29.92S
$$
MNZ037-044-045-052-053-230800-
   East Central Minnesota

CITY           SKY/WX    TMP DP  RH WIND       PRES   REMARKS
PRINCETON      CLEAR     72  61  68 S14       29.90F
MORA           CLEAR     64  57  77 S7        29.92S
CAMBRIDGE      CLOUDY    73  59  60 S12G20    29.90S
RUSH CITY      CLOUDY    70  60  70 S7        29.92S
MOOSE LAKE     PTCLDY    64  59  82 S7        29.88S
HINCKLEY       FAIR      64  61  88 S3        29.92S
CLOQUET        CLEAR     66  57  72 S8        29.90S
MCGREGOR       CLEAR     70  61  73 S8        29.88S
$$
MNZ071>073-080-081-089-090-097-098-230800-
   Southwest Minnesota

CITY           SKY/WX    TMP DP  RH WIND       PRES   REMARKS
MONTEVIDEO     CLOUDY    70  61  73 SW9       29.85S
GRANITE FALLS  PTCLDY    70  62  75 S14       29.86F
CANBY          MOCLDY    73  60  63 SW21G29   29.81F
MARSHALL       PTCLDY    71  60  68 S25G35    29.83F
REDWOOD FALLS  CLOUDY    70  59  68 S18G26    29.88S
OLIVIA         CLOUDY    70  59  68 S13G18    29.88S
PIPESTONE      PTCLDY    68  61  77 S17       29.90R
WINDOM         PTCLDY    70  59  68 S14G22    29.93F
WORTHINGTON    CLOUDY    68  60  75 S15G21    29.94S
JACKSON        MOCLDY    68  57  68 S14       29.96F
TRACY          PTCLDY    71  60  69 S18G28    29.88S
SLAYTON        PTCLDY    66  59  77 S16G26    29.92S
$$
MNZ065>067-074>077-082>085-091>093-230800-
   South Central Minnesota

CITY           SKY/WX    TMP DP  RH WIND       PRES   REMARKS
MANKATO        PTCLDY    68  57  68 S15G22    29.96S
NEW ULM          N/A     68  61  77 S13G20    29.92S
ST JAMES       PTCLDY    63  55  77 S12G22    29.95S
GLENCOE        CLEAR     69  64  82 S10G16    29.92S
FARIBAULT      CLOUDY    66  61  82 S9        29.98S
OWATONNA       PTCLDY    66  59  77 S10       29.99S
WASECA         PTCLDY    64  59  82 S14G20    29.99F
ALBERT LEA     CLEAR     66  59  77 S9G16     30.01F
$$
MNZ078>079-086>088-094>096-230800-
   Southeast Minnesota

CITY           SKY/WX    TMP DP  RH WIND       PRES   REMARKS
ROCHESTER      CLEAR     64  60  87 S14       30.04S
RED WING       CLOUDY    70  59  68 S8G16     29.98S
STANTON        CLOUDY    68  61  77 S9        29.96S
DODGE CENTER   CLOUDY    64  57  77 S17G23    30.01F
WINONA         PTCLDY    70  59  68 SW7       30.03R
AUSTIN         CLEAR     64  57  77 S14G20    30.03S
PRESTON        CLEAR     64  59  84 S10G16    30.06S
$$
ABBREVIATIONS USED IN REMARKS
   TC - TEMPERATURES IN CELSIUS
  WCI - WIND CHILL INDEX
   HX - HEAT INDEX
  VSB - VISIBILITY
$$




USA.gov is the U.S. government's official web portal to all federal, state and local government web resources and services.